| time (UTC) | temp C | wind direction | speed KPH | gust KPH | rain 1hr cm | rain 24hr cm | rain mn cm | humidity % | barometer mb |
| 20260509075717 | 38 | 0 | 0.0 | 4.8 | 0.00 | 0.00 | 0.00 | 24 | 1007.8 |
| 20260509075130 | 38 | 45 | 0.0 | 4.8 | 0.00 | 0.00 | 0.00 | 24 | 1007.9 |
| 20260509074543 | 39 | 180 | 0.0 | 4.8 | 0.00 | 0.00 | 0.00 | 23 | 1007.9 |
| 20260509073956 | 39 | 270 | 0.0 | 3.2 | 0.00 | 0.00 | 0.00 | 23 | 1007.7 |
| 20260509073409 | 39 | 90 | 0.0 | 4.8 | 0.00 | 0.00 | 0.00 | 23 | 1007.7 |
| 20260509072822 | 40 | 45 | 0.0 | 4.8 | 0.00 | 0.00 | 0.00 | 23 | 1007.9 |
| 20260509072235 | 40 | 45 | 0.0 | 4.8 | 0.00 | 0.00 | 0.00 | 23 | 1008.0 |
| 20260509071648 | 40 | 270 | 0.0 | 3.2 | 0.00 | 0.00 | 0.00 | 23 | 1008.0 |
| 20260509071101 | 40 | 270 | 0.0 | 4.8 | 0.00 | 0.00 | 0.00 | 22 | 1008.0 |
| 20260509070514 | 40 | 225 | 0.0 | 4.8 | 0.00 | 0.00 | 0.00 | 22 | 1008.0 |
| 20260509065927 | 40 | 90 | 0.0 | 3.2 | 0.00 | 0.00 | 0.00 | 23 | 1008.0 |
| 20260509064753 | 40 | 315 | 0.0 | 4.8 | 0.00 | 0.00 | 0.00 | 23 | 1008.2 |
| 20260509064206 | 40 | 0 | 0.0 | 4.8 | 0.00 | 0.00 | 0.00 | 23 | 1008.0 |
| 20260509063619 | 41 | 45 | 0.0 | 3.2 | 0.00 | 0.00 | 0.00 | 23 | 1008.1 |
| 20260509063032 | 41 | 270 | 0.0 | 3.2 | 0.00 | 0.00 | 0.00 | 23 | 1008.1 |
| 20260509062445 | 40 | 315 | 0.0 | 4.8 | 0.00 | 0.00 | 0.00 | 23 | 1008.2 |
| 20260509061858 | 40 | 225 | 0.0 | 4.8 | 0.00 | 0.00 | 0.00 | 23 | 1008.3 |
| 20260509061311 | 41 | 90 | 0.0 | 4.8 | 0.00 | 0.00 | 0.00 | 22 | 1008.2 |
| 20260509060724 | 41 | 315 | 0.0 | 3.2 | 0.00 | 0.00 | 0.00 | 22 | 1008.1 |
| 20260509060137 | 41 | 45 | 0.0 | 3.2 | 0.00 | 0.00 | 0.00 | 22 | 1008.2 |
| 20260509055550 | 41 | 45 | 0.0 | 4.8 | 0.00 | 0.00 | 0.00 | 22 | 1008.3 |
| 20260509055003 | 41 | 225 | 0.0 | 4.8 | 0.00 | 0.00 | 0.00 | 22 | 1008.2 |
| 20260509054416 | 41 | 315 | 0.0 | 4.8 | 0.00 | 0.00 | 0.00 | 22 | 1008.2 |
| 20260509053829 | 41 | 0 | 0.0 | 4.8 | 0.00 | 0.00 | 0.00 | 21 | 1008.3 |
| 20260509053242 | 42 | 90 | 0.0 | 4.8 | 0.00 | 0.00 | 0.00 | 21 | 1008.2 |
| 20260509052655 | 42 | 45 | 1.6 | 4.8 | 0.00 | 0.00 | 0.00 | 21 | 1008.3 |
| 20260509052108 | 42 | 45 | 0.0 | 4.8 | 0.00 | 0.00 | 0.00 | 21 | 1008.4 |
| 20260509051521 | 42 | 270 | 0.0 | 3.2 | 0.00 | 0.00 | 0.00 | 21 | 1008.4 |
| 20260509050934 | 42 | 270 | 0.0 | 4.8 | 0.00 | 0.00 | 0.00 | 21 | 1008.4 |
| 20260509050347 | 42 | 90 | 0.0 | 4.8 | 0.00 | 0.00 | 0.00 | 21 | 1008.4 |
| 20260509045800 | 42 | 315 | 0.0 | 4.8 | 0.00 | 0.00 | 0.00 | 22 | 1008.5 |
| 20260509045213 | 42 | 225 | 0.0 | 4.8 | 0.00 | 0.00 | 0.00 | 22 | 1008.4 |
| 20260509044626 | 42 | 315 | 0.0 | 4.8 | 0.00 | 0.00 | 0.00 | 22 | 1008.4 |
| 20260509044038 | 41 | 45 | 0.0 | 3.2 | 0.00 | 0.00 | 0.00 | 22 | 1008.6 |
| 20260509043452 | 41 | 315 | 0.0 | 3.2 | 0.00 | 0.00 | 0.00 | 22 | 1008.4 |
| 20260509042905 | 41 | 0 | 0.0 | 3.2 | 0.00 | 0.00 | 0.00 | 22 | 1008.6 |
| 20260509042317 | 41 | 45 | 0.0 | 4.8 | 0.00 | 0.00 | 0.00 | 22 | 1008.7 |
| 20260509041730 | 41 | 270 | 0.0 | 4.8 | 0.00 | 0.00 | 0.00 | 22 | 1008.9 |
| 20260509041143 | 41 | 90 | 0.0 | 4.8 | 0.00 | 0.00 | 0.00 | 23 | 1008.8 |
| 20260509040556 | 41 | 0 | 0.0 | 3.2 | 0.00 | 0.00 | 0.00 | 23 | 1009.0 |
| 20260509040009 | 41 | 180 | 0.0 | 4.8 | 0.00 | 0.00 | 0.00 | 23 | 1009.0 |
| 20260509035422 | 41 | 270 | 0.0 | 4.8 | 0.00 | 0.00 | 0.00 | 23 | 1009.1 |
| 20260509034835 | 41 | 315 | 0.0 | 4.8 | 0.00 | 0.00 | 0.00 | 23 | 1009.5 |
| 20260509034248 | 41 | 315 | 0.0 | 4.8 | 0.00 | 0.00 | 0.00 | 23 | 1009.2 |
| 20260509033701 | 41 | 225 | 0.0 | 4.8 | 0.00 | 0.00 | 0.00 | 23 | 1009.5 |
| 20260509033114 | 41 | 0 | 0.0 | 4.8 | 0.00 | 0.00 | 0.00 | 23 | 1009.5 |
| 20260509032527 | 41 | 0 | 0.0 | 4.8 | 0.00 | 0.00 | 0.00 | 23 | 1009.6 |
| 20260509031940 | 41 | 270 | 0.0 | 4.8 | 0.00 | 0.00 | 0.00 | 23 | 1009.6 |
| 20260509031353 | 41 | 270 | 0.0 | 9.7 | 0.00 | 0.00 | 0.00 | 24 | 1009.6 |
| 20260509030806 | 41 | 225 | 0.0 | 4.8 | 0.00 | 0.00 | 0.00 | 24 | 1009.6 |
| 20260509030219 | 40 | 45 | 0.0 | 4.8 | 0.00 | 0.00 | 0.00 | 24 | 1009.7 |
| 20260509025632 | 40 | 45 | 0.0 | 4.8 | 0.00 | 0.00 | 0.00 | 24 | 1009.6 |
| 20260509025045 | 40 | 225 | 0.0 | 3.2 | 0.00 | 0.00 | 0.00 | 24 | 1009.7 |
| 20260509024458 | 40 | 225 | 0.0 | 4.8 | 0.00 | 0.00 | 0.00 | 24 | 1009.7 |
| 20260509023911 | 40 | 45 | 0.0 | 4.8 | 0.00 | 0.00 | 0.00 | 25 | 1009.8 |
| 20260509023324 | 40 | 270 | 0.0 | 4.8 | 0.00 | 0.00 | 0.00 | 25 | 1009.9 |
| 20260509022737 | 40 | 225 | 0.0 | 4.8 | 0.00 | 0.00 | 0.00 | 25 | 1009.8 |
| 20260509022150 | 40 | 315 | 0.0 | 3.2 | 0.00 | 0.00 | 0.00 | 25 | 1009.8 |
| 20260509021603 | 40 | 315 | 0.0 | 3.2 | 0.00 | 0.00 | 0.00 | 26 | 1009.9 |
| 20260509021016 | 39 | 0 | 0.0 | 3.2 | 0.00 | 0.00 | 0.00 | 26 | 1009.9 |
| 20260509020429 | 39 | 315 | 0.0 | 3.2 | 0.00 | 0.00 | 0.00 | 26 | 1009.9 |
| 20260509015842 | 38 | 0 | 0.0 | 1.6 | 0.00 | 0.00 | 0.00 | 26 | 1010.1 |
| 20260509015255 | 38 | 0 | 0.0 | 3.2 | 0.00 | 0.00 | 0.00 | 26 | 1010.1 |
| 20260509014708 | 38 | 45 | 0.0 | 3.2 | 0.00 | 0.00 | 0.00 | 27 | 1010.2 |
| 20260509014121 | 38 | 270 | 0.0 | 4.8 | 0.00 | 0.00 | 0.00 | 27 | 1010.3 |
| 20260509013533 | 38 | 270 | 0.0 | 4.8 | 0.00 | 0.00 | 0.00 | 28 | 1010.2 |
| 20260509012947 | 37 | 90 | 0.0 | 4.8 | 0.00 | 0.00 | 0.00 | 28 | 1010.4 |
| 20260509012359 | 37 | 45 | 0.0 | 3.2 | 0.00 | 0.00 | 0.00 | 28 | 1010.4 |
| 20260509011812 | 37 | 315 | 0.0 | 3.2 | 0.00 | 0.00 | 0.00 | 29 | 1010.3 |
| 20260509011225 | 37 | 315 | 0.0 | 4.8 | 0.00 | 0.00 | 0.00 | 29 | 1010.3 |
| 20260509010638 | 36 | 45 | 0.0 | 4.8 | 0.00 | 0.00 | 0.00 | 29 | 1010.2 |
| 20260509010051 | 36 | 90 | 0.0 | 3.2 | 0.00 | 0.00 | 0.00 | 30 | 1010.1 |
| 20260509005504 | 36 | 225 | 0.0 | 3.2 | 0.00 | 0.00 | 0.00 | 31 | 1010.2 |
| 20260509004917 | 36 | 315 | 0.0 | 3.2 | 0.00 | 0.00 | 0.00 | 31 | 1010.0 |
| 20260509004330 | 35 | 0 | 0.0 | 4.8 | 0.00 | 0.00 | 0.00 | 31 | 1009.8 |
| 20260509003743 | 35 | 315 | 0.0 | 4.8 | 0.00 | 0.00 | 0.00 | 32 | 1009.8 |
| 20260509003156 | 35 | 270 | 0.0 | 4.8 | 0.00 | 0.00 | 0.00 | 33 | 1009.8 |
| 20260509002609 | 35 | 45 | 0.0 | 3.2 | 0.00 | 0.00 | 0.00 | 34 | 1009.9 |
| 20260509002022 | 34 | 0 | 0.0 | 4.8 | 0.00 | 0.00 | 0.00 | 34 | 1009.8 |
| 20260509001435 | 33 | 315 | 0.0 | 4.8 | 0.00 | 0.00 | 0.00 | 34 | 1009.9 |
| 20260509000848 | 33 | 315 | 0.0 | 3.2 | 0.00 | 0.00 | 0.00 | 36 | 1009.8 |
| 20260509000303 | 33 | 45 | 0.0 | 3.2 | 0.00 | 0.00 | 0.00 | 36 | 1009.8 |
| 20260508235714 | 32 | 315 | 0.0 | 3.2 | 0.00 | 0.00 | 0.00 | 37 | 1009.7 |
| 20260508235127 | 32 | 0 | 0.0 | 4.8 | 0.00 | 0.00 | 0.00 | 37 | 1009.6 |
| 20260508234540 | 32 | 315 | 0.0 | 3.2 | 0.00 | 0.00 | 0.00 | 38 | 1009.7 |
| 20260508233953 | 31 | 270 | 0.0 | 4.8 | 0.00 | 0.00 | 0.00 | 39 | 1009.6 |
| 20260508233406 | 31 | 0 | 1.6 | 4.8 | 0.00 | 0.00 | 0.00 | 40 | 1009.6 |
| 20260508232819 | 31 | 45 | 0.0 | 3.2 | 0.00 | 0.00 | 0.00 | 40 | 1009.6 |
| 20260508232232 | 31 | 315 | 0.0 | 3.2 | 0.00 | 0.00 | 0.00 | 40 | 1009.7 |
| 20260508231645 | 30 | 270 | 0.0 | 1.6 | 0.00 | 0.00 | 0.00 | 41 | 1009.6 |
| 20260508231058 | 30 | 225 | 0.0 | 1.6 | 0.00 | 0.00 | 0.00 | 41 | 1009.5 |
| 20260508230511 | 30 | 0 | 0.0 | 1.6 | 0.00 | 0.00 | 0.00 | 41 | 1009.6 |
| 20260508225924 | 30 | 0 | 0.0 | 3.2 | 0.00 | 0.00 | 0.00 | 42 | 1009.6 |
| 20260508225337 | 30 | 45 | 0.0 | 3.2 | 0.00 | 0.00 | 0.00 | 42 | 1009.4 |
| 20260508224750 | 30 | 315 | 0.0 | 1.6 | 0.00 | 0.00 | 0.00 | 42 | 1009.4 |
| 20260508224203 | 29 | 315 | 0.0 | 3.2 | 0.00 | 0.00 | 0.00 | 42 | 1009.3 |
| 20260508223616 | 29 | 315 | 0.0 | 3.2 | 0.00 | 0.00 | 0.00 | 42 | 1009.3 |
| 20260508223029 | 29 | 0 | 0.0 | 3.2 | 0.00 | 0.00 | 0.00 | 42 | 1009.3 |
| 20260508222441 | 29 | 90 | 0.0 | 3.2 | 0.00 | 0.00 | 0.00 | 42 | 1009.3 |
| 20260508221855 | 29 | 90 | 0.0 | 1.6 | 0.00 | 0.00 | 0.00 | 42 | 1009.3 |
| 20260508221308 | 29 | 45 | 0.0 | 3.2 | 0.00 | 0.00 | 0.00 | 42 | 1009.3 |
| 20260508220721 | 29 | 0 | 0.0 | 3.2 | 0.00 | 0.00 | 0.00 | 41 | 1009.2 |
| 20260508220133 | 29 | 315 | 0.0 | 4.8 | 0.00 | 0.00 | 0.00 | 41 | 1009.3 |
| 20260508215546 | 29 | 315 | 0.0 | 4.8 | 0.00 | 0.00 | 0.00 | 41 | 1009.3 |
| 20260508214959 | 29 | 0 | 0.0 | 3.2 | 0.00 | 0.00 | 0.00 | 41 | 1009.3 |
| 20260508214412 | 29 | 315 | 0.0 | 3.2 | 0.00 | 0.00 | 0.00 | 41 | 1009.3 |
| 20260508213825 | 29 | 0 | 0.0 | 3.2 | 0.00 | 0.00 | 0.00 | 41 | 1009.1 |
| 20260508213238 | 29 | 315 | 0.0 | 3.2 | 0.00 | 0.00 | 0.00 | 41 | 1009.0 |
| 20260508212652 | 29 | 0 | 0.0 | 3.2 | 0.00 | 0.00 | 0.00 | 41 | 1008.9 |
| 20260508212104 | 29 | 315 | 0.0 | 1.6 | 0.00 | 0.00 | 0.00 | 41 | 1008.8 |
| 20260508211517 | 29 | 270 | 0.0 | 3.2 | 0.00 | 0.00 | 0.00 | 41 | 1008.7 |
| 20260508210930 | 29 | 315 | 0.0 | 3.2 | 0.00 | 0.00 | 0.00 | 41 | 1008.7 |
| 20260508210343 | 29 | 315 | 0.0 | 1.6 | 0.00 | 0.00 | 0.00 | 41 | 1008.9 |
| 20260508205756 | 29 | 315 | 0.0 | 3.2 | 0.00 | 0.00 | 0.00 | 41 | 1008.5 |
| 20260508205209 | 29 | 0 | 0.0 | 3.2 | 0.00 | 0.00 | 0.00 | 41 | 1008.7 |
| 20260508204622 | 29 | 315 | 0.0 | 4.8 | 0.00 | 0.00 | 0.00 | 41 | 1008.7 |
| 20260508204035 | 29 | 315 | 0.0 | 4.8 | 0.00 | 0.00 | 0.00 | 41 | 1008.7 |
| 20260508203448 | 29 | 315 | 0.0 | 1.6 | 0.00 | 0.00 | 0.00 | 41 | 1008.6 |
| 20260508202901 | 29 | 270 | 0.0 | 0.0 | 0.00 | 0.00 | 0.00 | 41 | 1008.5 |
| 20260508202314 | 29 | 0 | 0.0 | 0.0 | 0.00 | 0.00 | 0.00 | 41 | 1008.3 |
| 20260508201727 | 29 | 315 | 0.0 | 0.0 | 0.00 | 0.00 | 0.00 | 41 | 1008.2 |
| 20260508201140 | 30 | 315 | 0.0 | 0.0 | 0.00 | 0.00 | 0.00 | 41 | 1008.0 |
| 20260508200553 | 30 | 270 | 0.0 | 1.6 | 0.00 | 0.00 | 0.00 | 41 | 1007.9 |
| 20260508200006 | 30 | 180 | 0.0 | 3.2 | 0.00 | 0.00 | 0.00 | 41 | 1008.1 |
| 20260508195419 | 30 | 315 | 0.0 | 3.2 | 0.00 | 0.00 | 0.00 | 41 | 1008.0 |
| 20260508194832 | 30 | 270 | 0.0 | 3.2 | 0.00 | 0.00 | 0.00 | 41 | 1008.1 |
| 20260508194245 | 30 | 270 | 0.0 | 0.0 | 0.00 | 0.00 | 0.00 | 41 | 1008.2 |
| 20260508193658 | 30 | 270 | 0.0 | 0.0 | 0.00 | 0.00 | 0.00 | 41 | 1008.0 |
| 20260508193111 | 30 | 270 | 0.0 | 0.0 | 0.00 | 0.00 | 0.00 | 40 | 1007.8 |
| 20260508192524 | 30 | 90 | 0.0 | 0.0 | 0.00 | 0.00 | 0.00 | 40 | 1007.9 |
| 20260508191937 | 30 | 315 | 0.0 | 0.0 | 0.00 | 0.00 | 0.00 | 40 | 1007.9 |
| 20260508191350 | 30 | 45 | 0.0 | 0.0 | 0.00 | 0.00 | 0.00 | 40 | 1008.0 |
| 20260508190803 | 30 | 315 | 0.0 | 1.6 | 0.00 | 0.00 | 0.00 | 40 | 1008.0 |
| 20260508190216 | 30 | 315 | 0.0 | 1.6 | 0.00 | 0.00 | 0.00 | 40 | 1008.1 |
| 20260508185629 | 30 | 315 | 0.0 | 1.6 | 0.00 | 0.00 | 0.00 | 40 | 1008.1 |
| 20260508185042 | 30 | 0 | 0.0 | 1.6 | 0.00 | 0.00 | 0.00 | 40 | 1008.2 |
| 20260508184455 | 30 | 45 | 0.0 | 1.6 | 0.00 | 0.00 | 0.00 | 40 | 1008.1 |
| 20260508183908 | 30 | 0 | 0.0 | 1.6 | 0.00 | 0.00 | 0.00 | 40 | 1008.3 |
| 20260508183321 | 30 | 0 | 0.0 | 1.6 | 0.00 | 0.00 | 0.00 | 40 | 1008.4 |
| 20260508182733 | 30 | 90 | 0.0 | 1.6 | 0.00 | 0.00 | 0.00 | 40 | 1008.5 |
| 20260508182146 | 30 | 315 | 0.0 | 0.0 | 0.00 | 0.00 | 0.00 | 40 | 1008.6 |
| 20260508181559 | 30 | 270 | 0.0 | 0.0 | 0.00 | 0.00 | 0.00 | 40 | 1008.6 |
| 20260508181012 | 30 | 270 | 0.0 | 1.6 | 0.00 | 0.00 | 0.00 | 40 | 1008.7 |
| 20260508180425 | 30 | 315 | 0.0 | 1.6 | 0.00 | 0.00 | 0.00 | 40 | 1008.6 |
| 20260508175838 | 30 | 0 | 0.0 | 0.0 | 0.00 | 0.00 | 0.00 | 40 | 1008.7 |
| 20260508175251 | 30 | 315 | 0.0 | 0.0 | 0.00 | 0.00 | 0.00 | 40 | 1008.6 |
| 20260508174704 | 30 | 0 | 0.0 | 1.6 | 0.00 | 0.00 | 0.00 | 40 | 1008.6 |
| 20260508174117 | 30 | 315 | 0.0 | 1.6 | 0.00 | 0.00 | 0.00 | 40 | 1008.5 |
| 20260508173530 | 30 | 0 | 0.0 | 1.6 | 0.00 | 0.00 | 0.00 | 40 | 1008.4 |
| 20260508172943 | 30 | 315 | 0.0 | 1.6 | 0.00 | 0.00 | 0.00 | 40 | 1008.6 |
| 20260508172356 | 30 | 0 | 0.0 | 1.6 | 0.00 | 0.00 | 0.00 | 40 | 1008.5 |
| 20260508171809 | 30 | 315 | 0.0 | 0.0 | 0.00 | 0.00 | 0.00 | 40 | 1008.6 |
| 20260508171222 | 30 | 315 | 0.0 | 1.6 | 0.00 | 0.00 | 0.00 | 40 | 1008.6 |
| 20260508170635 | 30 | 0 | 0.0 | 1.6 | 0.00 | 0.00 | 0.00 | 40 | 1008.6 |
| 20260508170048 | 30 | 315 | 0.0 | 1.6 | 0.00 | 0.00 | 0.00 | 40 | 1008.6 |
| 20260508165501 | 30 | 0 | 0.0 | 1.6 | 0.00 | 0.00 | 0.00 | 40 | 1008.6 |
| 20260508164914 | 30 | 315 | 0.0 | 0.0 | 0.00 | 0.00 | 0.00 | 40 | 1008.8 |
| 20260508164327 | 30 | 225 | 0.0 | 1.6 | 0.00 | 0.00 | 0.00 | 39 | 1008.9 |
| 20260508163740 | 30 | 315 | 0.0 | 1.6 | 0.00 | 0.00 | 0.00 | 40 | 1008.9 |
| 20260508163153 | 30 | 270 | 0.0 | 1.6 | 0.00 | 0.00 | 0.00 | 39 | 1008.9 |
| 20260508162606 | 30 | 315 | 0.0 | 1.6 | 0.00 | 0.00 | 0.00 | 39 | 1008.9 |
| 20260508162019 | 30 | 270 | 0.0 | 1.6 | 0.00 | 0.00 | 0.00 | 39 | 1009.1 |
| 20260508161432 | 30 | 315 | 0.0 | 1.6 | 0.00 | 0.00 | 0.00 | 39 | 1009.2 |
| 20260508160712 | 30 | 315 | 0.0 | 1.6 | 0.00 | 0.00 | 0.00 | 39 | 1009.1 |
| 20260508160125 | 30 | 315 | 0.0 | 1.6 | 0.00 | 0.00 | 0.00 | 39 | 1009.2 |
| 20260508155538 | 30 | 315 | 0.0 | 1.6 | 0.00 | 0.00 | 0.00 | 39 | 1009.2 |
| 20260508154951 | 30 | 225 | 0.0 | 1.6 | 0.00 | 0.00 | 0.00 | 39 | 1009.2 |
| 20260508154404 | 31 | 270 | 0.0 | 0.0 | 0.00 | 0.00 | 0.00 | 39 | 1009.3 |
| 20260508153817 | 31 | 270 | 0.0 | 1.6 | 0.00 | 0.00 | 0.00 | 39 | 1009.2 |
| 20260508153230 | 31 | 270 | 0.0 | 1.6 | 0.00 | 0.00 | 0.00 | 39 | 1009.3 |
| 20260508152642 | 31 | 270 | 0.0 | 1.6 | 0.00 | 0.00 | 0.00 | 39 | 1009.2 |
| 20260508152055 | 31 | 270 | 0.0 | 0.0 | 0.00 | 0.00 | 0.00 | 38 | 1009.3 |
| 20260508151508 | 31 | 315 | 0.0 | 1.6 | 0.00 | 0.00 | 0.00 | 38 | 1009.4 |
| 20260508150921 | 31 | 270 | 0.0 | 1.6 | 0.00 | 0.00 | 0.00 | 38 | 1009.5 |
| 20260508150334 | 31 | 315 | 0.0 | 1.6 | 0.00 | 0.00 | 0.00 | 38 | 1009.5 |
| 20260508145747 | 31 | 270 | 0.0 | 1.6 | 0.00 | 0.00 | 0.00 | 38 | 1009.6 |
| 20260508145200 | 31 | 225 | 0.0 | 1.6 | 0.00 | 0.00 | 0.00 | 38 | 1009.5 |
| 20260508144613 | 31 | 270 | 0.0 | 1.6 | 0.00 | 0.00 | 0.00 | 38 | 1009.6 |
| 20260508144026 | 31 | 270 | 0.0 | 0.0 | 0.00 | 0.00 | 0.00 | 38 | 1009.5 |
| 20260508143439 | 31 | 270 | 0.0 | 1.6 | 0.00 | 0.00 | 0.00 | 38 | 1009.5 |
| 20260508142852 | 31 | 270 | 0.0 | 1.6 | 0.00 | 0.00 | 0.00 | 37 | 1009.5 |
| 20260508142307 | 31 | 180 | 0.0 | 1.6 | 0.00 | 0.00 | 0.00 | 37 | 1009.4 |
| 20260508141718 | 31 | 270 | 0.0 | 1.6 | 0.00 | 0.00 | 0.00 | 37 | 1009.4 |
| 20260508141131 | 32 | 315 | 0.0 | 1.6 | 0.00 | 0.00 | 0.00 | 37 | 1009.4 |
| 20260508140544 | 32 | 270 | 0.0 | 1.6 | 0.00 | 0.00 | 0.00 | 37 | 1009.4 |
| 20260508135957 | 32 | 270 | 0.0 | 1.6 | 0.00 | 0.00 | 0.00 | 37 | 1009.4 |
| 20260508135410 | 32 | 315 | 0.0 | 3.2 | 0.00 | 0.00 | 0.00 | 37 | 1009.6 |
| 20260508134823 | 32 | 270 | 0.0 | 3.2 | 0.00 | 0.00 | 0.00 | 37 | 1009.4 |
| 20260508134236 | 32 | 315 | 0.0 | 1.6 | 0.00 | 0.00 | 0.00 | 37 | 1009.2 |
| 20260508133649 | 32 | 0 | 0.0 | 1.6 | 0.00 | 0.00 | 0.00 | 36 | 1009.1 |
| 20260508133102 | 32 | 0 | 0.0 | 1.6 | 0.00 | 0.00 | 0.00 | 37 | 1009.0 |
| 20260508132515 | 32 | 0 | 0.0 | 1.6 | 0.00 | 0.00 | 0.00 | 37 | 1009.0 |
| 20260508131928 | 32 | 315 | 0.0 | 1.6 | 0.00 | 0.00 | 0.00 | 37 | 1008.9 |
| 20260508131341 | 32 | 225 | 0.0 | 3.2 | 0.00 | 0.00 | 0.00 | 37 | 1009.1 |
| 20260508130754 | 32 | 315 | 0.0 | 3.2 | 0.00 | 0.00 | 0.00 | 37 | 1009.0 |
| 20260508130207 | 32 | 270 | 0.0 | 1.6 | 0.00 | 0.00 | 0.00 | 37 | 1009.0 |
| 20260508125620 | 32 | 315 | 0.0 | 1.6 | 0.00 | 0.00 | 0.00 | 37 | 1008.7 |
| 20260508125033 | 32 | 270 | 0.0 | 1.6 | 0.00 | 0.00 | 0.00 | 36 | 1008.6 |
| 20260508124446 | 33 | 0 | 0.0 | 3.2 | 0.00 | 0.00 | 0.00 | 36 | 1008.5 |
| 20260508123859 | 33 | 315 | 0.0 | 3.2 | 0.00 | 0.00 | 0.00 | 36 | 1008.5 |
| 20260508123312 | 33 | 225 | 0.0 | 3.2 | 0.00 | 0.00 | 0.00 | 36 | 1008.4 |
| 20260508122725 | 33 | 90 | 0.0 | 3.2 | 0.00 | 0.00 | 0.00 | 36 | 1008.2 |
| 20260508122138 | 33 | 270 | 0.0 | 3.2 | 0.00 | 0.00 | 0.00 | 36 | 1008.4 |
| 20260508121550 | 33 | 270 | 0.0 | 4.8 | 0.00 | 0.00 | 0.00 | 35 | 1008.2 |
| 20260508121003 | 33 | 270 | 0.0 | 4.8 | 0.00 | 0.00 | 0.00 | 35 | 1008.2 |
| 20260508120417 | 33 | 225 | 0.0 | 3.2 | 0.00 | 0.00 | 0.00 | 35 | 1008.2 |
| 20260508115829 | 33 | 315 | 0.0 | 1.6 | 0.00 | 0.00 | 0.00 | 35 | 1008.2 |
| 20260508115242 | 34 | 225 | 0.0 | 1.6 | 0.00 | 0.00 | 0.00 | 34 | 1008.1 |
| 20260508114655 | 34 | 315 | 0.0 | 3.2 | 0.00 | 0.00 | 0.00 | 34 | 1008.2 |
| 20260508114108 | 34 | 270 | 0.0 | 3.2 | 0.00 | 0.00 | 0.00 | 34 | 1007.9 |
| 20260508113521 | 34 | 270 | 0.0 | 3.2 | 0.00 | 0.00 | 0.00 | 34 | 1007.9 |
| 20260508112934 | 35 | 270 | 0.0 | 1.6 | 0.00 | 0.00 | 0.00 | 34 | 1007.9 |
| 20260508112347 | 35 | 315 | 0.0 | 1.6 | 0.00 | 0.00 | 0.00 | 33 | 1007.8 |
| 20260508111800 | 35 | 0 | 0.0 | 1.6 | 0.00 | 0.00 | 0.00 | 33 | 1007.8 |
| 20260508111213 | 35 | 0 | 0.0 | 1.6 | 0.00 | 0.00 | 0.00 | 33 | 1007.8 |
| 20260508110626 | 35 | 270 | 0.0 | 1.6 | 0.00 | 0.00 | 0.00 | 32 | 1007.5 |
| 20260508110039 | 35 | 270 | 0.0 | 1.6 | 0.00 | 0.00 | 0.00 | 32 | 1007.7 |
| 20260508105452 | 35 | 270 | 0.0 | 1.6 | 0.00 | 0.00 | 0.00 | 32 | 1007.5 |
| 20260508104905 | 35 | 270 | 0.0 | 3.2 | 0.00 | 0.00 | 0.00 | 31 | 1007.6 |
| 20260508104318 | 35 | 270 | 0.0 | 1.6 | 0.00 | 0.00 | 0.00 | 31 | 1007.5 |
| 20260508103731 | 35 | 270 | 0.0 | 1.6 | 0.00 | 0.00 | 0.00 | 31 | 1007.5 |
| 20260508103144 | 36 | 0 | 0.0 | 1.6 | 0.00 | 0.00 | 0.00 | 31 | 1007.5 |
| 20260508102557 | 36 | 0 | 0.0 | 4.8 | 0.00 | 0.00 | 0.00 | 30 | 1007.5 |
| 20260508102010 | 36 | 225 | 0.0 | 4.8 | 0.00 | 0.00 | 0.00 | 30 | 1007.4 |
| 20260508101423 | 36 | 315 | 0.0 | 3.2 | 0.00 | 0.00 | 0.00 | 29 | 1007.4 |
| 20260508100836 | 36 | 270 | 0.0 | 3.2 | 0.00 | 0.00 | 0.00 | 29 | 1007.2 |
| 20260508100249 | 36 | 0 | 0.0 | 3.2 | 0.00 | 0.00 | 0.00 | 29 | 1007.1 |
| 20260508095702 | 36 | 315 | 0.0 | 3.2 | 0.00 | 0.00 | 0.00 | 28 | 1007.0 |
| 20260508095115 | 36 | 270 | 0.0 | 3.2 | 0.00 | 0.00 | 0.00 | 28 | 1007.0 |
| 20260508094528 | 37 | 315 | 0.0 | 4.8 | 0.00 | 0.00 | 0.00 | 27 | 1006.9 |
| 20260508093941 | 37 | 0 | 0.0 | 3.2 | 0.00 | 0.00 | 0.00 | 26 | 1006.8 |
| 20260508093354 | 37 | 270 | 0.0 | 4.8 | 0.00 | 0.00 | 0.00 | 26 | 1006.8 |
| 20260508092807 | 37 | 315 | 0.0 | 3.2 | 0.00 | 0.00 | 0.00 | 26 | 1006.8 |
| 20260508092220 | 37 | 270 | 0.0 | 3.2 | 0.00 | 0.00 | 0.00 | 25 | 1006.7 |
| 20260508091633 | 37 | 270 | 0.0 | 4.8 | 0.00 | 0.00 | 0.00 | 25 | 1006.7 |
| 20260508091046 | 38 | 315 | 0.0 | 4.8 | 0.00 | 0.00 | 0.00 | 25 | 1006.6 |
| 20260508090459 | 38 | 315 | 0.0 | 4.8 | 0.00 | 0.00 | 0.00 | 25 | 1006.5 |
| 20260508085912 | 38 | 0 | 0.0 | 4.8 | 0.00 | 0.00 | 0.00 | 25 | 1006.6 |
| 20260508085325 | 38 | 0 | 0.0 | 4.8 | 0.00 | 0.00 | 0.00 | 25 | 1006.5 |
| 20260508084737 | 38 | 135 | 0.0 | 4.8 | 0.00 | 0.00 | 0.00 | 25 | 1006.6 |
| 20260508084151 | 38 | 270 | 0.0 | 4.8 | 0.00 | 0.00 | 0.00 | 24 | 1006.5 |
| 20260508083603 | 39 | 135 | 0.0 | 4.8 | 0.00 | 0.00 | 0.00 | 24 | 1006.4 |
| 20260508083016 | 39 | 45 | 0.0 | 4.8 | 0.00 | 0.00 | 0.00 | 25 | 1006.3 |
| 20260508082429 | 40 | 225 | 0.0 | 4.8 | 0.00 | 0.00 | 0.00 | 25 | 1006.3 |
| 20260508081842 | 40 | 0 | 0.0 | 4.8 | 0.00 | 0.00 | 0.00 | 24 | 1006.3 |
| 20260508081255 | 40 | 270 | 0.0 | 4.8 | 0.00 | 0.00 | 0.00 | 24 | 1006.1 |
| 20260508080708 | 40 | 45 | 0.0 | 4.8 | 0.00 | 0.00 | 0.00 | 24 | 1006.1 |